Voltar ao catálogo

FENGYUN 1C DEB

LostPO
NORAD 31635·DEBRIS·🇨🇳 China

Lançado May 10, 1999 de Taiyuan Satellite Launch Center

Loading…

Próximas Passagens (próximas 24 horas)

TLE

ObsoletoSource: Space-Track

Época: Dec 24, 2020, 01:26 UTC

1 31635U 99025CAR 20359.05993472  .00001024  00000-0  38102-3 0  9995
2 31635  99.4219  78.4405 0053400 192.8800 167.1021 14.33740113710678

Acompanhe FENGYUN 1C DEB em tempo real com AllMySat

Download on the App Store